Location: Endfield
(51.6667°N, 0.0667°W)
Time: 13:12:16
(UTC+00:00)

USA 281 - Pass Details

Date: 19 May 2024
Orbit: 1076 x 1083 km, 106.0° (Epoch: 10 June)

Event Time Altitude Azimuth Distance (km) Brightness Sun altitude
Exits shadow 20:27:21 - 127° (SE) 3,297 5.1 -5.0°
Reaches altitude 10° 20:28:23 10° 125° (SE) 2,915 4.8 -5.1°
Maximum altitude 20:34:40 51° 52° (NE) 1,333 3.7 -5.9°
Drops below altitude 10° 20:40:59 10° 339° (NNW) 2,934 6.8 -6.6°
Sets 20:43:34 0° 335° (NNW) 3,894 7.8 -6.8°
